{"data":{"norad_id":43056,"epoch":"2026-05-22T11:55:54.694848Z","epoch_age_seconds":291210,"freshness":"STALE","line1":"1 43056U 17079B   26142.49716082 -.00000011  00000+0  00000+0 0  9995","line2":"2 43056  55.0811 222.2139 0003659 275.5669  84.4487  1.70474676 52569","mean_motion":1.70474676,"eccentricity":0.0003659,"inclination_deg":55.0811,"raan_deg":222.2139,"arg_perigee_deg":275.5669,"mean_anomaly_deg":84.4487,"bstar":0,"rev_number":5256,"period_min":844.70024157723,"perigee_km":23211.274077663,"apogee_km":23232.935534616,"semimajor_km":29600.24180614,"source":"CELESTRAK","updated_at":"2026-05-25T13:38:24.059700Z"}}